Time,TemperatureF,DewpointF,PressureIn,WindDirection,WindDirectionDegrees,WindSpeedMPH,WindSpeedGustMPH,Humidity,HourlyPrecipIn,Conditions,Clouds,dailyrainin,SolarRadiationWatts/m^2,SoftwareType,DateUTC
2013-05-30 00:01:00,41.0,32.0,-100.00,West,270,12.0,23.0,71,0.00,,,0.00,0.000000,,2013-05-30 06:01:00,
2013-05-30 00:32:00,40.0,33.0,-100.00,West,261,10.0,20.0,75,0.00,,,0.00,0.000000,,2013-05-30 06:32:00,
2013-05-30 00:42:00,40.0,33.0,-100.00,West,261,10.0,20.0,75,0.00,,,0.00,0.000000,,2013-05-30 06:42:00,
2013-05-30 00:52:00,40.0,33.0,-100.00,West,261,10.0,20.0,75,0.00,,,0.00,0.000000,,2013-05-30 06:52:00,
2013-05-30 01:01:00,40.0,33.0,-100.00,West,261,10.0,20.0,75,0.00,,,0.00,0.000000,,2013-05-30 07:01:00,
2013-05-30 01:32:00,40.0,31.0,-100.00,SW,217,5.0,20.0,71,0.00,,,0.00,0.000000,,2013-05-30 07:32:00,
2013-05-30 01:42:00,40.0,31.0,-100.00,SW,217,5.0,20.0,71,0.00,,,0.00,0.000000,,2013-05-30 07:42:00,
2013-05-30 01:52:00,40.0,31.0,-100.00,SW,217,5.0,20.0,71,0.00,,,0.00,0.000000,,2013-05-30 07:52:00,
2013-05-30 02:01:00,40.0,31.0,-100.00,SW,217,5.0,20.0,71,0.00,,,0.00,0.000000,,2013-05-30 08:01:00,
2013-05-30 02:32:00,39.0,35.0,-100.00,WSW,255,6.0,19.0,85,0.00,,,0.00,0.000000,,2013-05-30 08:32:00,
2013-05-30 02:42:00,39.0,35.0,-100.00,WSW,255,6.0,19.0,85,0.00,,,0.00,0.000000,,2013-05-30 08:42:00,
2013-05-30 02:53:00,39.0,35.0,-100.00,WSW,255,6.0,19.0,85,0.00,,,0.00,0.000000,,2013-05-30 08:53:00,
2013-05-30 03:01:00,39.0,35.0,-100.00,WSW,255,6.0,19.0,85,0.00,,,0.00,0.000000,,2013-05-30 09:01:00,
2013-05-30 03:33:00,40.0,31.0,-100.00,West,274,7.0,15.0,71,0.00,,,0.00,0.000000,,2013-05-30 09:33:00,
2013-05-30 03:43:00,40.0,31.0,-100.00,West,274,7.0,15.0,71,0.00,,,0.00,0.000000,,2013-05-30 09:43:00,
2013-05-30 03:53:00,40.0,31.0,-100.00,West,274,7.0,15.0,71,0.00,,,0.00,0.000000,,2013-05-30 09:53:00,
2013-05-30 04:02:00,40.0,31.0,-100.00,West,274,7.0,15.0,71,0.00,,,0.00,0.000000,,2013-05-30 10:02:00,
2013-05-30 04:33:00,38.0,33.0,-100.00,West,266,11.0,17.0,81,0.00,,,0.00,0.000000,,2013-05-30 10:33:00,
2013-05-30 04:42:00,38.0,33.0,-100.00,West,266,11.0,17.0,81,0.00,,,0.00,0.000000,,2013-05-30 10:42:00,
2013-05-30 04:52:00,38.0,33.0,-100.00,West,266,11.0,17.0,81,0.00,,,0.00,0.000000,,2013-05-30 10:52:00,
2013-05-30 05:02:00,38.0,33.0,-100.00,West,266,11.0,17.0,81,0.00,,,0.00,0.000000,,2013-05-30 11:02:00,
2013-05-30 05:32:00,38.0,32.0,-100.00,WSW,256,10.0,18.0,80,0.00,,,0.00,0.000000,,2013-05-30 11:32:00,
2013-05-30 05:42:00,38.0,32.0,-100.00,WSW,256,10.0,18.0,80,0.00,,,0.00,0.000000,,2013-05-30 11:42:00,
2013-05-30 05:52:00,38.0,32.0,-100.00,WSW,256,10.0,18.0,80,0.00,,,0.00,0.000000,,2013-05-30 11:52:00,
2013-05-30 06:01:00,38.0,32.0,-100.00,WSW,256,10.0,18.0,80,0.00,,,0.00,0.000000,,2013-05-30 12:01:00,
2013-05-30 06:32:00,37.0,33.0,-100.00,SW,231,8.0,18.0,85,0.00,,,0.00,1.000000,,2013-05-30 12:32:00,
2013-05-30 06:42:00,37.0,33.0,-100.00,SW,231,8.0,18.0,85,0.00,,,0.00,1.000000,,2013-05-30 12:42:00,
2013-05-30 06:52:00,37.0,33.0,-100.00,SW,231,8.0,18.0,85,0.00,,,0.00,1.000000,,2013-05-30 12:52:00,
2013-05-30 07:01:00,37.0,33.0,-100.00,SW,231,8.0,18.0,85,0.00,,,0.00,1.000000,,2013-05-30 13:01:00,
2013-05-30 07:32:00,38.0,33.0,-100.00,WSW,252,8.0,19.0,82,0.00,,,0.00,37.000000,,2013-05-30 13:32:00,
2013-05-30 07:42:00,38.0,33.0,-100.00,WSW,252,8.0,19.0,82,0.00,,,0.00,37.000000,,2013-05-30 13:42:00,
2013-05-30 07:52:00,38.0,33.0,-100.00,WSW,252,8.0,19.0,82,0.00,,,0.00,37.000000,,2013-05-30 13:52:00,
2013-05-30 08:01:00,38.0,33.0,-100.00,WSW,252,8.0,19.0,82,0.00,,,0.00,37.000000,,2013-05-30 14:01:00,
2013-05-30 08:32:00,41.0,32.0,-100.00,West,263,11.0,18.0,71,0.00,,,0.00,154.000000,,2013-05-30 14:32:00,
2013-05-30 08:42:00,41.0,32.0,-100.00,West,263,11.0,18.0,71,0.00,,,0.00,154.000000,,2013-05-30 14:42:00,
2013-05-30 08:52:00,41.0,32.0,-100.00,West,263,11.0,18.0,71,0.00,,,0.00,154.000000,,2013-05-30 14:52:00,
2013-05-30 09:01:00,41.0,32.0,-100.00,West,263,11.0,18.0,71,0.00,,,0.00,154.000000,,2013-05-30 15:01:00,
2013-05-30 09:33:00,43.0,31.0,-100.00,West,275,13.0,19.0,62,0.00,,,-99.99,403.000000,,2013-05-30 15:33:00,
2013-05-30 09:42:00,43.0,31.0,-100.00,West,275,13.0,19.0,62,0.00,,,-99.99,403.000000,,2013-05-30 15:42:00,
2013-05-30 09:52:00,43.0,31.0,-100.00,West,275,13.0,19.0,62,0.00,,,-99.99,403.000000,,2013-05-30 15:52:00,
2013-05-30 10:03:00,43.0,31.0,-100.00,West,275,13.0,19.0,62,0.00,,,-99.99,403.000000,,2013-05-30 16:03:00,
2013-05-30 10:33:00,43.0,28.0,-100.00,West,275,15.0,23.0,55,0.00,,,0.00,568.000000,,2013-05-30 16:33:00,
2013-05-30 10:42:00,43.0,28.0,-100.00,West,275,15.0,23.0,55,0.00,,,0.00,568.000000,,2013-05-30 16:42:00,
2013-05-30 10:52:00,43.0,28.0,-100.00,West,275,15.0,23.0,55,0.00,,,0.00,568.000000,,2013-05-30 16:52:00,
2013-05-30 11:02:00,43.0,28.0,-100.00,West,275,15.0,23.0,55,0.00,,,0.00,568.000000,,2013-05-30 17:02:00,
2013-05-30 11:22:00,43.0,25.0,-100.00,West,276,20.0,29.0,48,0.00,,,0.00,839.000000,,2013-05-30 17:22:00,
2013-05-30 11:32:00,43.0,25.0,-100.00,West,276,20.0,29.0,48,0.00,,,0.00,839.000000,,2013-05-30 17:32:00,
2013-05-30 11:42:00,43.0,25.0,-100.00,West,276,20.0,29.0,48,0.00,,,0.00,839.000000,,2013-05-30 17:42:00,
2013-05-30 11:52:00,43.0,25.0,-100.00,West,276,20.0,29.0,48,0.00,,,0.00,839.000000,,2013-05-30 17:52:00,
2013-05-30 12:02:00,43.0,25.0,-100.00,West,276,20.0,29.0,48,0.00,,,0.00,839.000000,,2013-05-30 18:02:00,
2013-05-30 12:32:00,45.0,31.0,-100.00,West,274,22.0,33.0,58,0.00,,,0.00,934.000000,,2013-05-30 18:32:00,
2013-05-30 12:43:00,45.0,31.0,-100.00,West,274,22.0,33.0,58,0.00,,,0.00,934.000000,,2013-05-30 18:43:00,
2013-05-30 12:52:00,45.0,31.0,-100.00,West,274,22.0,33.0,58,0.00,,,0.00,934.000000,,2013-05-30 18:52:00,
2013-05-30 13:01:00,45.0,31.0,-100.00,West,274,22.0,33.0,58,0.00,,,0.00,934.000000,,2013-05-30 19:01:00,
2013-05-30 13:32:00,49.0,36.0,-100.00,WSW,252,9.0,30.0,60,0.00,,,0.00,737.000000,,2013-05-30 19:32:00,
2013-05-30 13:42:00,49.0,36.0,-100.00,WSW,252,9.0,30.0,60,0.00,,,0.00,737.000000,,2013-05-30 19:42:00,
2013-05-30 13:52:00,49.0,36.0,-100.00,WSW,252,9.0,30.0,60,0.00,,,0.00,737.000000,,2013-05-30 19:52:00,
2013-05-30 14:01:00,49.0,36.0,-100.00,WSW,252,9.0,30.0,60,0.00,,,0.00,737.000000,,2013-05-30 20:01:00,
2013-05-30 14:33:00,48.0,27.0,-100.00,West,275,22.0,34.0,44,0.00,,,0.00,872.000000,,2013-05-30 20:33:00,
2013-05-30 14:42:00,48.0,27.0,-100.00,West,275,22.0,34.0,44,0.00,,,0.00,872.000000,,2013-05-30 20:42:00,
2013-05-30 14:52:00,48.0,27.0,-100.00,West,275,22.0,34.0,44,0.00,,,0.00,872.000000,,2013-05-30 20:52:00,
2013-05-30 15:01:00,48.0,27.0,-100.00,West,275,22.0,34.0,44,0.00,,,0.00,872.000000,,2013-05-30 21:01:00,
2013-05-30 15:33:00,50.0,32.0,-100.00,West,270,14.0,37.0,50,0.00,,,0.00,833.000000,,2013-05-30 21:33:00,
2013-05-30 15:43:00,50.0,32.0,-100.00,West,270,14.0,37.0,50,0.00,,,0.00,833.000000,,2013-05-30 21:43:00,
2013-05-30 15:53:00,50.0,32.0,-100.00,West,270,14.0,37.0,50,0.00,,,0.00,833.000000,,2013-05-30 21:53:00,
2013-05-30 16:02:00,50.0,32.0,-100.00,West,270,14.0,37.0,50,0.00,,,0.00,833.000000,,2013-05-30 22:02:00,
2013-05-30 16:33:00,50.0,30.0,-100.00,WSW,258,11.0,24.0,46,0.00,,,0.00,859.000000,,2013-05-30 22:33:00,
2013-05-30 16:42:00,50.0,30.0,-100.00,WSW,258,11.0,24.0,46,0.00,,,0.00,859.000000,,2013-05-30 22:42:00,
2013-05-30 16:52:00,50.0,30.0,-100.00,WSW,258,11.0,24.0,46,0.00,,,0.00,859.000000,,2013-05-30 22:52:00,
2013-05-30 17:02:00,50.0,30.0,-100.00,WSW,258,11.0,24.0,46,0.00,,,0.00,859.000000,,2013-05-30 23:02:00,
2013-05-30 17:32:00,47.0,27.0,-100.00,WSW,250,10.0,25.0,46,0.00,,,0.00,723.000000,,2013-05-30 23:32:00,
2013-05-30 17:42:00,47.0,27.0,-100.00,WSW,250,10.0,25.0,46,0.00,,,0.00,723.000000,,2013-05-30 23:42:00,
2013-05-30 17:52:00,47.0,27.0,-100.00,WSW,250,10.0,25.0,46,0.00,,,0.00,723.000000,,2013-05-30 23:52:00,
2013-05-30 18:01:00,47.0,27.0,-100.00,WSW,250,10.0,25.0,46,0.00,,,0.00,723.000000,,2013-05-31 00:01:00,
2013-05-30 18:22:00,45.0,31.0,-100.00,West,276,17.0,29.0,57,0.00,,,0.00,367.000000,,2013-05-31 00:22:00,
2013-05-30 18:32:00,45.0,31.0,-100.00,West,276,17.0,29.0,57,0.00,,,0.00,367.000000,,2013-05-31 00:32:00,
2013-05-30 18:42:00,45.0,31.0,-100.00,West,276,17.0,29.0,57,0.00,,,0.00,367.000000,,2013-05-31 00:42:00,
2013-05-30 18:52:00,45.0,31.0,-100.00,West,276,17.0,29.0,57,0.00,,,0.00,367.000000,,2013-05-31 00:52:00,
2013-05-30 19:01:00,45.0,31.0,-100.00,West,276,17.0,29.0,57,0.00,,,0.00,367.000000,,2013-05-31 01:01:00,
2013-05-30 19:32:00,45.0,30.0,-100.00,West,271,14.0,24.0,55,0.00,,,0.00,307.000000,,2013-05-31 01:32:00,
2013-05-30 19:42:00,45.0,30.0,-100.00,West,271,14.0,24.0,55,0.00,,,0.00,307.000000,,2013-05-31 01:42:00,
2013-05-30 19:52:00,45.0,30.0,-100.00,West,271,14.0,24.0,55,0.00,,,0.00,307.000000,,2013-05-31 01:52:00,
2013-05-30 20:02:00,45.0,30.0,-100.00,West,271,14.0,24.0,55,0.00,,,0.00,307.000000,,2013-05-31 02:02:00,
2013-05-30 20:32:00,42.0,34.0,-100.00,West,278,13.0,19.0,72,0.00,,,0.00,144.000000,,2013-05-31 02:32:00,
2013-05-30 20:42:00,42.0,34.0,-100.00,West,278,13.0,19.0,72,0.00,,,0.00,144.000000,,2013-05-31 02:42:00,
2013-05-30 20:52:00,42.0,34.0,-100.00,West,278,13.0,19.0,72,0.00,,,0.00,144.000000,,2013-05-31 02:52:00,
2013-05-30 21:01:00,42.0,34.0,-100.00,West,278,13.0,19.0,72,0.00,,,0.00,144.000000,,2013-05-31 03:01:00,
2013-05-30 21:33:00,41.0,31.0,-100.00,WNW,282,10.0,20.0,67,0.00,,,0.00,27.000000,,2013-05-31 03:33:00,
2013-05-30 21:43:00,41.0,31.0,-100.00,WNW,282,10.0,20.0,67,0.00,,,0.00,27.000000,,2013-05-31 03:43:00,
2013-05-30 21:53:00,41.0,31.0,-100.00,WNW,282,10.0,20.0,67,0.00,,,0.00,27.000000,,2013-05-31 03:53:00,
2013-05-30 22:02:00,41.0,31.0,-100.00,WNW,282,10.0,20.0,67,0.00,,,0.00,27.000000,,2013-05-31 04:02:00,
2013-05-30 22:33:00,42.0,32.0,-100.00,West,267,9.0,13.0,68,0.00,,,0.00,2.000000,,2013-05-31 04:33:00,
2013-05-30 22:42:00,42.0,32.0,-100.00,West,267,9.0,13.0,68,0.00,,,0.00,2.000000,,2013-05-31 04:42:00,
2013-05-30 22:53:00,42.0,32.0,-100.00,West,267,9.0,13.0,68,0.00,,,0.00,2.000000,,2013-05-31 04:53:00,
2013-05-30 23:02:00,42.0,32.0,-100.00,West,267,9.0,13.0,68,0.00,,,0.00,2.000000,,2013-05-31 05:02:00,
2013-05-30 23:32:00,40.0,33.0,-100.00,West,268,13.0,17.0,76,0.00,,,0.00,0.000000,,2013-05-31 05:32:00,
2013-05-30 23:42:00,40.0,33.0,-100.00,West,268,13.0,17.0,76,0.00,,,0.00,0.000000,,2013-05-31 05:42:00,
2013-05-30 23:52:00,40.0,33.0,-100.00,West,268,13.0,17.0,76,0.00,,,0.00,0.000000,,2013-05-31 05:52:00,